User: anonymous   Login
Location: Unspecified
(0.0000°N, 0.0000°E)
Time: 18:22:54
(UTC+00:00)
Language:

STARLINK-30916 - Orbit

View from above orbital plane
View from above orbital plane
View from above satellite
View from above satellite

Ground track
Ground track

The orbit is defined by the following mean orbital elements,

1 58391U          26145.33178896 +.00000000 +00000-0 +34464-4 0 00007
2 58391  53.1605   4.4113 0001083 106.5664 253.5458 15.34385895    04
Epoch (UTC): 25 May 2026 07:57:46
Eccentricity: 0.0001083
inclination: 53.1605°
perigee height: 462 km
apogee height: 463 km
right ascension of ascending node: 4.4113°
argument of perigee: 106.5664°
revolutions per day: 15.34385895
mean anomaly at epoch: 253.5458°

The dashed part of the orbit path shows where the satellite is in the earth's shadow,  

DLR